Flag for Norway Weather past 2 weeks in Kleppestø, Norway

Now
63 °F

Mild.


Feels Like: 63 °F
Forecast: 56 / 60 °F
Wind: 7 mph from East

Location: Bergen / Florida

Current Time: Aug 31, 2014 at 8:22:21 AM

Latest Report: Aug 31, 2014 at 7:00 AM


Visibility: N/A

Pressure: 29.90 "Hg

Humidity: 49%

Dew point: 43 °F

Location of KleppestøLocation

Historic Weather in Kleppestø — Graph

°F

Kleppestø temperature yesterday

Maximum temperature yesterday: 68 °F (at 1:00 PM)
Minimum temperature yesterday: 55 °F (at 2:00 AM)
Average temperature yesterday: 62 °F

Past Weeks' High & Low Weather Summary

 TemperatureHumidityPressure
High69 °F (Aug 27, 5:00 PM)90% (Aug 18, 5:00 AM)29.98 "Hg (Aug 18, 5:00 AM)
Low49 °F (Aug 24, 5:00 AM)43% (Aug 30, 3:00 PM)29.18 "Hg (Aug 18, 11:00 AM)
Average57 °F75%29.67 "Hg
* Reported Aug 16 7:00 AM — Aug 31 7:00 AM, Kleppestø, Weather by CustomWeather, © 2014

Note: Actual official high and low records may vary slightly from our data, if they occured in-between our weather recording intervals... More about our weather records

Advertising

Kleppestø weather history for previous 24 hours

 ConditionsComfort  
Time TempWeatherWind HumidityBarometerVisibility
7:00 AM
Aug 31
63 °FMild.7 mph49%29.90 "HgN/A
6:00 AM63 °FMild.9 mph48%29.89 "HgN/A
5:00 AM63 °FMild.8 mph48%29.88 "HgN/A
4:00 AM63 °FMild.8 mph50%29.88 "HgN/A
3:00 AM63 °FMild.10 mph50%29.87 "HgN/A
2:00 AM63 °FMild.13 mph50%29.85 "HgN/A
1:00 AM63 °FMild.9 mph53%29.85 "HgN/A
12:00 AM62 °FRefreshingly cool.9 mph55%29.83 "HgN/A
11:00 PM
Aug 30
61 °FOvercast.7 mph61%29.84 "Hg19 mi
10:00 PM60 °FCool.8 mph65%29.84 "HgN/A
9:00 PM63 °FMild.10 mph53%29.82 "HgN/A
8:00 PM63 °FOvercast.10 mph54%29.81 "Hg25 mi
7:00 PM62 °FCool.7 mph61%29.81 "HgN/A
6:00 PM62 °FCool.2 mph67%29.81 "HgN/A
5:00 PM65 °FOvercast.6 mph52%29.80 "Hg25 mi
4:00 PM67 °FMild.5 mph44%29.78 "HgN/A
3:00 PM68 °FMild.7 mph43%29.77 "HgN/A
2:00 PM67 °FPartly sunny.6 mph47%29.77 "Hg31 mi
1:00 PM68 °FMild.7 mph46%29.77 "HgN/A
12:00 PM67 °FMild.7 mph47%29.77 "HgN/A
11:00 AM66 °FOvercast.6 mph49%29.77 "Hg25 mi
10:00 AM63 °FMild.7 mph58%29.78 "HgN/A
9:00 AM59 °FCool.1 mph74%29.78 "HgN/A
8:00 AM58 °FOvercast.2 mph71%29.78 "Hg25 mi
Weather by CustomWeather, © 2014

See weather overviewHow to use our weather pages